Home   Weather   Tabriz   Past weeks

Flag for Iran Past Weather in Tabriz, Iran — Yesterday and Last 2 Weeks

Now
82 °F

Passing clouds.


Feels Like: 80 °F
Forecast: 71 / 98 °F
Wind: 5 mph from East

Location: Tabriz Airport

Current Time: Aug 31, 2016 at 1:29:49 AM

Latest Report: Aug 31, 2016 at 1:00 AM


Visibility: N/A

Pressure: 30.04 "Hg (25.66 "Hg at 1388m altitude)

Humidity: 21%

Dew Point: 39 °F

Location of TabrizLocation

Past Weather in Tabriz — Graph

°F

Tabriz Temperature Yesterday

Maximum temperature yesterday: 99 °F (at 3:30 PM)
Minimum temperature yesterday: 72 °F (at 7:00 AM)
Average temperature yesterday: 85 °F

High & Low Weather Summary for the Past Weeks

 TemperatureHumidityPressure
High99 °F (Aug 29, 4:30 PM)64% (Aug 16, 7:00 AM)30.21 "Hg (Aug 16, 7:00 AM)
Low63 °F (Aug 26, 5:00 AM)6% (Aug 22, 4:00 PM)29.83 "Hg (Aug 17, 5:00 PM)
Average82 °F27%30.07 "Hg
* Reported Aug 15 11:30 PM — Aug 31 12:00 AM, Tabriz, Weather by CustomWeather, © 2016

Note: Actual official high and low records may vary slightly from our data, if they occured in-between our weather recording intervals... More about our weather records

Advertising

Tabriz Weather History for the Previous 24 Hours

Scroll right to see more
 ConditionsComfort  
Time TempWeatherWind HumidityBarometerVisibility
12:00 AM
Wed, Aug 31
81 °FPassing clouds.5 mph23%30.04 "HgN/A
11:30 PM
Tue, Aug 30
81 °FPassing clouds.5 mph23%30.04 "HgN/A
11:00 PM82 °FPassing clouds.5 mph23%30.04 "HgN/A
10:30 PM82 °FPassing clouds.5 mph26%30.04 "HgN/A
10:00 PM81 °FPassing clouds.No wind24%30.04 "HgN/A
9:30 PM81 °FPassing clouds.2 mph24%30.04 "HgN/A
9:00 PM81 °FScattered clouds.7 mph23%30.04 "HgN/A
8:30 PM84 °FScattered clouds.No wind27%30.01 "HgN/A
8:00 PM88 °FPassing clouds.No wind21%30.01 "HgN/A
7:30 PM93 °FPassing clouds.No wind19%30.01 "HgN/A
7:00 PM95 °FPassing clouds.2 mph13%30.01 "HgN/A
6:30 PM95 °FPassing clouds.7 mph12%30.01 "HgN/A
6:00 PM97 °FPassing clouds.16 mph13%30.04 "HgN/A
5:30 PM97 °FScattered clouds.2 mph13%30.04 "HgN/A
5:00 PM97 °FPassing clouds.7 mph12%30.04 "HgN/A
4:30 PM95 °FScattered clouds.5 mph13%30.04 "HgN/A
4:00 PM95 °FPassing clouds.12 mph15%30.04 "HgN/A
3:30 PM99 °FPassing clouds.12 mph13%30.04 "HgN/A
3:00 PM97 °FPassing clouds.7 mph13%30.07 "HgN/A
2:30 PM95 °FPassing clouds.7 mph15%30.07 "HgN/A
2:00 PM95 °FPassing clouds.7 mph16%30.09 "HgN/A
1:30 PM95 °FPassing clouds.7 mph14%30.09 "HgN/A
1:00 PM93 °FPassing clouds.5 mph17%30.09 "HgN/A
12:30 PM91 °FPassing clouds.2 mph21%30.09 "HgN/A
12:00 PM90 °FSunny.5 mph26%30.09 "Hg10 mi
11:30 AM88 °FSunny.7 mph29%30.09 "Hg10 mi
11:00 AM86 °FSunny.9 mph31%30.12 "Hg10 mi
10:30 AM84 °FSunny.7 mph35%30.09 "Hg10 mi
10:00 AM82 °FSunny.9 mph40%30.07 "Hg10 mi
9:30 AM81 °FSunny.7 mph42%30.09 "Hg10 mi
9:00 AM79 °FSunny.5 mph45%30.09 "Hg10 mi
8:30 AM77 °FSunny.2 mph44%30.09 "Hg10 mi
8:00 AM75 °FPassing clouds.2 mph47%30.09 "HgN/A
7:30 AM72 °FPassing clouds.5 mph50%30.09 "HgN/A
7:00 AM72 °FPassing clouds.2 mph53%30.09 "HgN/A
6:30 AM73 °FPassing clouds.5 mph47%30.09 "HgN/A
6:00 AM73 °FPassing clouds.2 mph53%30.09 "HgN/A
5:30 AM75 °FPassing clouds.5 mph50%30.07 "HgN/A
5:00 AM75 °FPassing clouds.No wind47%30.09 "HgN/A
4:30 AM77 °FPassing clouds.No wind47%30.09 "HgN/A
4:00 AM77 °FPassing clouds.2 mph42%30.09 "HgN/A
3:30 AM77 °FPassing clouds.5 mph44%30.09 "HgN/A
3:00 AM79 °FPassing clouds.2 mph39%30.09 "HgN/A
2:30 AM77 °FPassing clouds.9 mph39%30.09 "HgN/A
2:00 AM77 °FPassing clouds.7 mph36%30.09 "HgN/A
1:30 AM81 °FPassing clouds.5 mph37%30.07 "HgN/A
1:00 AM81 °FPassing clouds.5 mph37%30.07 "HgN/A
Weather by CustomWeather, © 2016

See weather overviewHow to use our weather pages